Jacksonville, FL

5:03 AM EST on January 24, 2018 (GMT -0500)
Jacksonville International

Weather History for KJAX - October, 2012

Change the Weather History Date:

Monday, October 8, 2012

  Actual Average Record
Temperature  
Mean Temperature 75 °F 73 °F  
Max Temperature 85 °F 82 °F 95 °F (1949)
Min Temperature 65 °F 63 °F 44 °F (1987)
Degree Days  
Heating Degree Days 0 0  
Month to date heating degree days 0 0  
Since 1 July heating degree days 0 0  
Cooling Degree Days 10 8  
Month to date cooling degree days 111 72  
Year to date cooling degree days 2623 2458  
Growing Degree Days 26 (Base 50)    
Moisture  
Dew Point 71 °F    
Average Humidity 83    
Maximum Humidity 100    
Minimum Humidity 65    
Precipitation  
Precipitation 0.02 in 0.17 in 3.91 in (1880)
Month to date precipitation 2.58 1.50  
Year to date precipitation 50.40 45.05  
Snow  
Snow 0.00 in 0.00 in 0.00 in (2002)
Month to date snowfall 0.0 0.0  
Since 1 July snowfall 0.0 0.0  
Since 1 September snowfall 0.0 0.0  
Snow Depth 0.00 in    
Sea Level Pressure  
Sea Level Pressure 30.00 in    
Wind  
Wind Speed 4 mph (North)    
Max Wind Speed 16 mph    
Max Gust Speed 21 mph    
Visibility 8 miles    
Events Rain    
T = Trace of Precipitation, MM = Missing Value Source: NWS Daily Summary

Daily Weather History Graph

Daily Weather History Graph

Search for Another Location

Airport or City:

Trip Planner

Search our weather history database for the weather conditions in past years. The results will help you decide how hot, cold, wet, or windy it might be!

Date:

Astronomy

Oct. 08, 2012 Rise Set
Actual Time 7:24 AM EDT 7:03 PM EDT
Civil Twilight 7:00 AM EDT 7:27 PM EDT
Nautical Twilight 6:32 AM EDT 7:54 PM EDT
Astronomical Twilight 6:04 AM EDT 8:22 PM EDT
Moon 12:30 AM EDT (10/8) 2:26 PM EDT (10/8)
Length of Visible Light 12h 26m
Length of Day
11h 38m
Waning Gibbous, 46% of the Moon is Illuminated
Oct 8
Waning Gibbous
Oct 15
New
Oct 21
First Quarter
Oct 29
Full
Nov 6
Last Quarter

Hourly Weather History & Observations

Time (EDT) Temp. Heat Index Dew Point Humidity Pressure Visibility Wind Dir Wind Speed Gust Speed Precip Events Conditions
12:56 AM 73.0 °F - 72.0 °F 96% 29.99 in 9.0 mi Calm Calm - N/A   Mostly Cloudy
1:56 AM 73.0 °F - 71.1 °F 93% 29.99 in 8.0 mi Calm Calm - N/A   Mostly Cloudy
2:56 AM 72.0 °F - 71.1 °F 97% 29.97 in 8.0 mi Calm Calm - N/A   Partly Cloudy
3:56 AM 72.0 °F - 70.0 °F 93% 29.97 in 7.0 mi Calm Calm - N/A   Partly Cloudy
4:56 AM 72.0 °F - 70.0 °F 93% 29.96 in 8.0 mi Calm Calm - N/A   Partly Cloudy
5:56 AM 71.1 °F - 70.0 °F 96% 29.98 in 8.0 mi Calm Calm - N/A   Clear
6:56 AM 71.1 °F - 70.0 °F 96% 29.99 in 6.0 mi Calm Calm - N/A   Scattered Clouds
7:10 AM 71.6 °F - 69.8 °F 94% 29.99 in 5.0 mi Calm Calm - N/A   Scattered Clouds
7:23 AM 71.6 °F - 69.8 °F 94% 30.00 in 2.5 mi Calm Calm - N/A   Mostly Cloudy
7:36 AM 71.6 °F - 69.8 °F 94% 30.01 in 4.0 mi Calm Calm - N/A   Mostly Cloudy
7:56 AM 71.1 °F - 70.0 °F 96% 30.02 in 6.0 mi Calm Calm - N/A   Mostly Cloudy
8:56 AM 73.0 °F - 71.1 °F 93% 30.03 in 9.0 mi Calm Calm - N/A   Mostly Cloudy
9:56 AM 77.0 °F - 73.9 °F 90% 30.03 in 9.0 mi Calm Calm - N/A   Mostly Cloudy
10:56 AM 79.0 °F - 73.9 °F 84% 30.04 in 10.0 mi South 4.6 mph - N/A   Overcast
11:39 AM 80.6 °F 85.4 °F 73.4 °F 79% 30.03 in 10.0 mi Variable 3.5 mph - N/A   Overcast
11:56 AM 81.0 °F 85.8 °F 73.0 °F 77% 30.03 in 10.0 mi SSE 4.6 mph - N/A   Overcast
12:56 PM 82.9 °F 88.8 °F 73.0 °F 72% 30.01 in 10.0 mi SSW 3.5 mph - N/A   Overcast
1:56 PM 82.9 °F 88.0 °F 72.0 °F 69% 29.97 in 10.0 mi Variable 3.5 mph - N/A   Overcast
2:21 PM 84.2 °F 89.6 °F 71.6 °F 66% 29.96 in 10.0 mi SSW 5.8 mph - N/A   Overcast
2:56 PM 84.0 °F 89.0 °F 71.1 °F 65% 29.96 in 10.0 mi WSW 8.1 mph - N/A   Overcast
3:56 PM 82.4 °F 87.2 °F 71.6 °F 70% 29.95 in 10.0 mi WNW 5.8 mph - N/A   Overcast
4:56 PM 80.1 °F 83.8 °F 72.0 °F 76% 29.96 in 10.0 mi WNW 6.9 mph - N/A   Overcast
5:56 PM 73.9 °F - 71.1 °F 91% 29.98 in 10.0 mi NNW 15.0 mph 19.6 mph 0.00 in Rain Light Rain
6:47 PM 73.4 °F - 71.6 °F 94% 29.98 in 3.0 mi NNE 6.9 mph - 0.01 in Rain Rain
6:56 PM 73.0 °F - 71.1 °F 93% 29.99 in 8.0 mi NNE 6.9 mph - 0.02 in Rain Light Rain
7:45 PM 73.4 °F - 71.6 °F 94% 30.00 in 10.0 mi NNE 3.5 mph - 0.00 in   Mostly Cloudy
7:56 PM 73.0 °F - 71.1 °F 93% 30.00 in 10.0 mi NE 8.1 mph - 0.00 in   Mostly Cloudy
8:43 PM 73.4 °F - 71.6 °F 94% 30.01 in 10.0 mi Variable 4.6 mph - N/A   Overcast
8:56 PM 73.0 °F - 71.1 °F 93% 30.02 in 10.0 mi North 5.8 mph - N/A   Overcast
9:56 PM 71.6 °F - 69.8 °F 94% 30.03 in 7.0 mi North 8.1 mph - N/A   Overcast
10:21 PM 69.8 °F - 69.8 °F 100% 30.04 in 5.0 mi North 10.4 mph - N/A   Overcast
10:56 PM 69.1 °F - 68.0 °F 96% 30.05 in 3.0 mi North 8.1 mph - N/A   Overcast
11:18 PM 68.0 °F - 66.2 °F 94% 30.06 in 1.0 mi North 8.1 mph - N/A   Overcast
11:56 PM 66.9 °F - 64.9 °F 93% 30.07 in 1.0 mi North 9.2 mph - N/A   Overcast